Weather History for KOKB - February, 2014

Change the Weather History Date:

Sunday, February 23, 2014

  Actual Average Record
Temperature  
Mean Temperature 53 °F 54 °F  
Max Temperature 70 °F 65 °F 75 °F (2012)
Min Temperature 36 °F 44 °F 33 °F (2013)
Degree Days  
Heating Degree Days 12 11  
Month to date heating degree days 220 253  
Since 1 July heating degree days 1145 1358  
Cooling Degree Days 0 0  
Month to date cooling degree days 0 0  
Year to date cooling degree days 0 0  
Growing Degree Days 2 (Base 50)    
Moisture  
Dew Point 45 °F    
Average Humidity 67    
Maximum Humidity 92    
Minimum Humidity 42    
Precipitation  
Precipitation 0.00 in 0.14 in 0.77 in (2005)
Month to date precipitation 0.24 2.46  
Year to date precipitation 0.28 5.11  
Since 1 July precipitation 1.88  
Snow  
Snow 0.00 in - - ()
Month to date snowfall 0.0  
Year to date snowfall 0.0  
Since 1 July snowfall 0.0  
Snow Depth 0.00 in    
Sea Level Pressure  
Sea Level Pressure 29.96 in    
Wind  
Wind Speed 3 mph (WSW)    
Max Wind Speed 12 mph    
Max Gust Speed 15 mph    
Visibility 7 miles    
Events      
T = Trace of Precipitation, MM = Missing Value Source: NWS Daily Summary

Daily Weather History Graph

Daily Weather History Graph

Search for Another Location

Airport or City:

Trip Planner

Search our weather history database for the weather conditions in past years. The results will help you decide how hot, cold, wet, or windy it might be!

Date:

Astronomy

Feb. 23, 2014 Rise Set
Actual Time 6:24 AM PST 5:41 PM PST
Civil Twilight 5:59 AM PST 6:06 PM PST
Nautical Twilight 5:30 AM PST 6:35 PM PST
Astronomical Twilight 5:01 AM PST 7:04 PM PST
Moon 1:18 AM PST (2/23) 11:57 AM PST (2/23)
Length of Visible Light 12h 07m
Length of Day
11h 17m
Last Quarter, 38% of the Moon is Illuminated
Feb 23
Last Quarter
Mar 1
New
Mar 8
First Quarter
Mar 16
Full
Mar 23
Last Quarter

Hourly Weather History & Observations

Time (PST) Temp. Dew Point Humidity Pressure Visibility Wind Dir Wind Speed Gust Speed Precip Events Conditions
12:52 AM 44.1 °F 39.0 °F 82% 29.94 in 8.0 mi Calm Calm - N/A   Clear
1:52 AM 42.1 °F 37.0 °F 82% 29.93 in 8.0 mi Calm Calm - N/A   Clear
2:52 AM 41.0 °F 36.0 °F 82% 29.92 in 9.0 mi Calm Calm - N/A   Clear
3:52 AM 39.9 °F 35.1 °F 83% 29.93 in 9.0 mi Calm Calm - N/A   Clear
4:52 AM 39.0 °F 34.0 °F 82% 29.93 in 9.0 mi Calm Calm - N/A   Clear
5:52 AM 36.0 °F 32.0 °F 86% 29.94 in 9.0 mi Calm Calm - N/A   Clear
6:52 AM 37.9 °F 35.1 °F 89% 29.96 in 7.0 mi Calm Calm - N/A   Clear
7:52 AM 48.0 °F 36.0 °F 63% 29.98 in 10.0 mi NNE 3.5 mph - N/A   Clear
8:52 AM 55.9 °F 35.1 °F 45% 29.99 in 10.0 mi Calm Calm - N/A   Clear
9:52 AM 64.0 °F 51.1 °F 63% 29.99 in 6.0 mi SW 4.6 mph - N/A   Haze
10:52 AM 68.0 °F 45.0 °F 43% 29.99 in 8.0 mi SW 5.8 mph - N/A   Clear
11:52 AM 66.0 °F 48.9 °F 54% 29.97 in 8.0 mi West 8.1 mph - N/A   Clear
12:52 PM 66.9 °F 51.1 °F 57% 29.94 in 8.0 mi WSW 10.4 mph - N/A   Clear
1:52 PM 69.1 °F 50.0 °F 51% 29.92 in 7.0 mi SW 9.2 mph - N/A   Clear
2:52 PM 66.9 °F 48.9 °F 52% 29.90 in 8.0 mi WSW 8.1 mph - N/A   Clear
3:52 PM 66.0 °F 48.9 °F 54% 29.91 in 7.0 mi WSW 8.1 mph - N/A   Clear
4:52 PM 64.0 °F 52.0 °F 65% 29.92 in 8.0 mi WSW 6.9 mph - N/A   Clear
5:52 PM 61.0 °F 53.1 °F 75% 29.94 in 7.0 mi SW 4.6 mph - N/A   Clear
6:52 PM 55.0 °F 48.9 °F 80% 29.96 in 8.0 mi WNW 3.5 mph - N/A   Clear
7:27 PM 53.1 °F 48.9 °F 86% 29.97 in 7.0 mi Calm Calm - N/A   Partly Cloudy
7:52 PM 52.0 °F 48.0 °F 86% 29.97 in 6.0 mi Calm Calm - N/A   Clear
8:52 PM 51.1 °F 46.9 °F 86% 29.99 in 3.0 mi NE 3.5 mph - N/A   Scattered Clouds
9:23 PM 52.0 °F 48.0 °F 86% 29.99 in 4.0 mi Calm Calm - N/A   Mostly Cloudy
9:52 PM 52.0 °F 48.9 °F 89% 30.00 in 4.0 mi Calm Calm - N/A   Overcast
10:52 PM 53.1 °F 48.9 °F 86% 30.00 in 5.0 mi Calm Calm - N/A   Overcast
11:29 PM 52.0 °F 48.0 °F 86% 30.00 in 5.0 mi Calm Calm - N/A   Scattered Clouds
11:52 PM 48.9 °F 46.9 °F 93% 30.00 in 3.0 mi Calm Calm - N/A   Clear